Zurück zum Katalog

ONEWEB-0081

AktivKommunikationPO
NORAD 45429·PAYLOAD·🇬🇧 United Kingdom

Gestartet Mar 21, 2020 von Baikonur Cosmodrome

Loading…

Nächste Überflüge (nächste 24 Stunden)

TLE

AktuellSource: CelesTrak SupGP

Epoche: Sep 14, 2026, 21:31 UTC

1 45429C 20020F   26257.89669398 -.00002595  00000+0 -73290-2 0  2570
2 45429  87.8979   3.2341 0001979 106.0706 356.0119 13.11422861    18

Verfolge ONEWEB-0081 in Echtzeit mit AllMySat

Download on the App Store